Location: Trebic
(49.2170°N, 15.8830°E)
Time: 21:48:58
(UTC+02:00)

Transit 4A - Pass Details

Date: 22 July 2019
Orbit: 863 x 981 km, 66.8° (Epoch: 24 August)

Event Time Altitude Azimuth Distance (km) Brightness Sun altitude
Exits shadow 03:21:43 17° 236° (SW) 2,275 9.4 -13.9°
Maximum altitude 03:26:44 59° 312° (NW) 1,129 8.4 -13.4°
Drops below altitude 10° 03:33:05 10° 32° (NNE) 2,739 11.9 -12.8°
Sets 03:35:43 0° 36° (NE) 3,683 13.2 -12.6°
